Content
SEND FEEDBACK

Daily
Averages
Monthly
Summary
France

LE HAVRE, FRANCE


Home > Europe > France
Elevation: 103 meters     Latitude: 49 31N     Longitude: 000 04E

WEATHER
 
SELECT A DAY
Number of Records: 176,103;   Date Range: 3/4/97 - 7/28/14
 
SHARE

PRINT THIS DATA

[ ← Previous Day ]
WEATHER ALMANAC - 18 SEPTEMBER, 2013
[ Next Day → ]
[ °F ]   °C
Weather ElementAverageHighLow
Temperature15.3 °C16 °C (12:30 am)14 °C (8:30 am)
Dewpoint10.8 °C14 °C (12:30 am)5 °C (10:00 pm)
Humidity75.1 %88 % (12:30 am)51 % (10:00 pm)
Barometer1004.7 hPa1012.2 hPa (10:30 pm)1000 hPa (12:30 am)
Wind Speed31.9 km/h48.1 km/h (2:00 am)
Wind Gust72.3 km/h (3:00 am)
Weather ElementAverage
Visibility9.8 km
Wind DirectionWNW (289.4 °)

Weather ElementTotal
Precipitation---
Heating Degree Days3.3 (Base 18.3)
Growing Degree Days5 (Base 10)
Averaged from 47 records on 18 September, 2013
WEATHER CONDITIONS BREAKOUT
WIND DIRECTION BREAKOUT
WEATHER BY HOUR - 18 SEPTEMBER, 2013
[ °F ]   °C
Local TimeTemperatureDewpointHumidityBarometerVisibilityWind DirectionWind SpeedGust SpeedPrecipitationEventsConditions
12:30 AM16 °C14 °C88 %1000 hPa10 kmWest (260°)46.3 km/hOvercast
1:00 AM16 °C13 °C82 %1000 hPa10 kmWest (260°)46.3 km/hMostly Cloudy
1:30 AM16 °C13 °C82 %1000 hPa10 kmWest (260°)46.3 km/hOvercast
2:00 AM16 °C12 °C77 %1000 hPa10 kmWest (260°)48.1 km/h68.6 km/hOvercast
2:30 AM16 °C13 °C82 %1000 hPa10 kmWest (260°)44.4 km/h68.6 km/hOvercast
3:00 AM16 °C12 °C77 %1000 hPa10 kmWest (260°)42.6 km/h72.3 km/hOvercast
3:30 AM16 °C12 °C77 %1000 hPa10 kmWest (260°)44.4 km/h62.9 km/hOvercast
4:00 AM16 °C12 °C77 %1001 hPa10 kmWest (270°)44.4 km/hMostly Cloudy
4:30 AM16 °C12 °C77 %1001 hPa10 kmWest (260°)38.9 km/h61.2 km/hOvercast
5:00 AM16 °C12 °C77 %1001 hPa10 kmWest (270°)40.7 km/hOvercast
5:30 AM16 °C12 °C77 %1001 hPa10 kmWest (260°)37 km/hOvercast
6:00 AM16 °C11 °C72 %1001 hPa10 kmWest (260°)38.9 km/hOvercast
6:30 AM16 °C11 °C72 %1001 hPa10 kmWest (260°)40.7 km/hMostly Cloudy
7:00 AM16 °C12 °C77 %1001 hPa10 kmWest (270°)38.9 km/hOvercast
7:30 AM16 °C12 °C77 %1001 hPa10 kmWest (260°)33.3 km/hOvercast
8:00 AM15 °C12 °C82 %1001 hPa10 kmWest (280°)37 km/h57.5 km/hMostly Cloudy
8:30 AM14 °C12 °C88 %1002 hPa6 kmWNW (290°)31.5 km/h51.8 km/hMostly Cloudy
9:00 AM14 °C12 °C88 %1002 hPa10 kmWest (270°)31.5 km/hOvercast
9:30 AM15 °C12 °C82 %1002 hPa10 kmWest (270°)35.2 km/hOvercast
10:00 AM15 °C12 °C82 %1002 hPa10 kmWest (270°)35.2 km/hOvercast
10:30 AM15 °C12 °C82 %1003 hPa9 kmWest (270°)31.5 km/hOvercast
11:00 AM15 °C13 °C88 %1003 hPa10 kmWest (260°)33.3 km/hMostly Cloudy
11:30 AM14 °C12 °C88 %1003 hPa10 kmWNW (290°)29.6 km/h50.1 km/hMostly Cloudy
12:00 PM15 °C12 °C82 %1004.1 hPa10 kmWest (280°)25.9 km/hMostly Cloudy
12:30 PM15 °C12 °C82 %1004.1 hPa10 kmNW (320°)27.8 km/hMostly Cloudy
1:00 PM15 °C13 °C88 %1004.1 hPa10 kmNW (310°)18.5 km/hOvercast
1:30 PM15 °C12 °C82 %1005.1 hPa10 kmWNW (290°)24.1 km/hOvercast
2:00 PM15 °C12 °C82 %1005.1 hPa10 kmNW (320°)27.8 km/hOvercast
2:30 PM15 °C12 °C82 %1005.1 hPa10 kmNNW (330°)20.4 km/hMostly Cloudy
3:00 PM15 °C12 °C82 %1006.1 hPa10 kmNNW (330°)22.2 km/hOvercast
3:30 PM16 °C12 °C77 %1006.1 hPa10 kmNW (320°)20.4 km/hMostly Cloudy
4:00 PM15 °C10 °C72 %1007.1 hPa10 kmNW (310°)22.2 km/hScattered Clouds
4:30 PM15 °C10 °C72 %1007.1 hPa10 kmNW (320°)22.2 km/hOvercast
5:00 PM16 °C11 °C72 %1007.1 hPa10 kmNW (320°)20.4 km/hMostly Cloudy
5:30 PM16 °C10 °C68 %1007.1 hPa10 kmNW (310°)22.2 km/hMostly Cloudy
6:00 PM15 °C9 °C67 %1008.1 hPa10 kmWNW (300°)25.9 km/hMostly Cloudy
6:30 PM15 °C9 °C67 %1009.1 hPa10 kmNW (310°)25.9 km/hMostly Cloudy
7:00 PM15 °C10 °C72 %1009.1 hPa10 kmWNW (300°)24.1 km/hOvercast
7:30 PM15 °C8 °C63 %1009.1 hPa10 kmWNW (290°)27.8 km/hOvercast
8:00 PM15 °C8 °C63 %1009.1 hPa10 kmNW (310°)27.8 km/hMostly Cloudy
8:30 PM15 °C7 °C59 %1010.2 hPa10 kmNW (310°)29.6 km/hOvercast
9:00 PM15 °C7 °C59 %1010.2 hPa10 kmNW (320°)27.8 km/hOvercast
9:30 PM15 °C7 °C59 %1011.2 hPa10 kmNW (310°)25.9 km/hMostly Cloudy
10:00 PM15 °C5 °C51 %1011.2 hPa10 kmNW (320°)29.6 km/hMostly Cloudy
10:30 PM15 °C6 °C55 %1012.2 hPa10 kmNW (310°)27.8 km/hOvercast
11:00 PM15 °C7 °C59 %1012.2 hPa10 kmNW (310°)27.8 km/hMostly Cloudy
11:30 PM14 °C7 °C63 %1012.2 hPa10 kmNW (320°)27.8 km/hOvercast
Hourly data recorded from LFOH, located 0 kilometers away from Le Havre, France







STORIES FROM OUR PARTNERS